Location: Asheville, NC
(35.6000°N, 82.5500°W)
Time: 09:39:57
(UTC-04:00)

Vanguard 1 Rocket - Pass Details

Date: 15 March 2018
Orbit: 653 x 4224 km, 34.3° (Epoch: 24 June)

Event Time Altitude Azimuth Distance (km) Brightness Sun altitude
Rises 16:30:22 0° 196° (SSW) 3,082 10.8 35.2°
Reaches altitude 10° 16:33:19 10° 173° (S) 2,376 10.0 34.7°
Maximum altitude 16:36:40 16° 134° (SE) 2,277 9.5 34.1°
Drops below altitude 10° 16:40:57 10° 98° (E) 3,212 9.9 33.4°
Sets 16:46:02 0° 80° (E) 4,852 10.6 32.5°
